Weather in Bulawayo

Zimbabwe     20°08′47″S   28°33′41″E
temp.,
°C
wind,
m/s
gust,
m/s
humid.,
%
clouds,
%
prec.,
mm/h
press.,
hPa
HPBL,
m
15 april, thu
thu1523:00+16ese34540 0.0 102078
02:00+14e23640 0.0 101953
05:00+13ese22710 0.0 101926
08:00+19ese310530 0.0 1020576
11:00+25ese713260 0.0 10181987
14:00+27ese810200 0.0 10152664
17:00+24ese68260 0.0 10152043
20:00+18e38420 0.0 1019183
16 april, fri
fri1623:00+16e38490 0.0 1020161
02:00+14ene37590 0.0 1018128
05:00+14ene35640 0.0 101875
08:00+20ene49322 0.0 1019305
11:00+27e69195 0.0 10171988
14:00+28ese78205 0.0 10153306
17:00+25ese78296 0.0 10162095
20:00+20ese713412 0.0 1019895
17 april, sat
sat1723:00+15ese91683100 0.0 1022698
02:00+14e81484100 0.1 1022814
05:00+12e81487100 0.0 1023772
08:00+12e81483100 0.0 1025746
11:00+18e79510 0.0 10241042
14:00+21e67410 0.0 10211361
17:00+19ese57470 0.0 10211174
20:00+14ese510660 0.0 1024495
18 april, sun
sun1823:00+11e511730 0.0 1025417
02:00+10ese512750 0.0 1025398
05:00+8ese411820 0.0 1025329
08:00+12e511670 0.0 1026449
11:00+20ese68320 0.0 10241151
14:00+23ese56210 0.0 10201754
17:00+20ese56260 0.0 10201140
20:00+14ese410430 0.0 1023263
19 april, mon
mon1923:00+12se410560 0.0 1024205
02:00+9ese35670 0.0 102389
05:00+9ese36650 0.0 102393
08:00+14ese48450 0.0 1023310
11:00+22ese57200 0.0 10211261
14:00+24ese56170 0.0 10182014
17:00+22se57220 0.0 1018983
20:00+15ese410390 0.0 1021203